Location: Fort Wayne
(41.1310°N, 85.1290°W)
Time: 22:47:27
(UTC-04:00)

IDEFIX/ARIANE 42P - Visible Passes

Search period start: 26 August 2016 00:00
Search period end: 05 September 2016 00:00
Orbit: 785 x 803 km, 98.2° (Epoch: 26 August)

Date Brightness Start Highest point End Pass type
(mag) Time Alt. Az. Time Alt. Az. Time Alt. Az.
27 Aug 6.0 21:07:44 10° WSW 21:08:55 11° W 21:10:06 10° WNW visible
31 Aug 5.6 20:52:14 10° SW 20:55:06 15° W 20:57:58 10° NW visible
03 Sep 6.1 21:09:30 10° W 21:09:57 10° W 21:10:25 10° W visible
04 Sep 5.4 20:37:34 10° SW 20:41:17 20° W 20:45:02 10° NW visible
